Regional Weather Roundup
Issued by NWS

Home | Current Version | Previous Version | Graphics & Text | Print | Product List | Glossary On
Versions: 1 2 3 4 5 6 7 8 9 10 11 12 13 14 15 16 17 18 19 20 21 22 23 24 25 26 27 28 29 30 31 32 33 34 35 36 37 38 39 40 41 42 43 44 45 46 47 48 49 50
000
ASUS43 KBIS 071810
RWRND

NORTH DAKOTA REGIONAL WEATHER ROUNDUP
NATIONAL WEATHER SERVICE BISMARCK ND
1200 PM CST SUN FEB 07 2016

NOTE: "FAIR" INDICATES FEW OR NO CLOUDS BELOW 12,000 FEET WITH NO
SIGNIFICANT WEATHER AND/OR OBSTRUCTIONS TO VISIBILITY.


NDZ001>003-009>011-017-071900-
NORTHWEST NORTH DAKOTA

CITY           SKY/WX    TMP DP  RH WIND       PRES   REMARKS
WILLISTON      MOSUNNY   33  19  56 NW36G46   30.13R WCI  18
6HR MIN TEMP:  31; 6HR MAX TEMP:  33; 6HR PCP: TRACE;

MINOT          FLURRIES  29  15  56 NW39G49   29.95R WCI  12
MINOT AFB      CLOUDY    26  16  67 NW33G52   29.94R WCI   8
$$

NDZ018>021-031>035-040>046-071900-
SOUTHWEST NORTH DAKOTA

CITY           SKY/WX    TMP DP  RH WIND       PRES   REMARKS
BISMARCK       CLOUDY    33  18  53 NW38G53   29.94R WCI  18
6HR MIN TEMP:  33; 6HR MAX TEMP:  39; 6HR PCP: TRACE;

DICKINSON      CLOUDY    31  16  54 NW32G47   30.05R WCI  16
GARRISON         N/A     28  19  69 NW44G55   29.94R WCI  10
6HR MIN TEMP:  27; 6HR MAX TEMP:  33;

HETTINGER ARPT PTSUNNY   35  15  44 NW43G55   30.07R WCI  20
$$

NDZ004>008-012>016-024-026-027-054-071900-
NORTHEAST NORTH DAKOTA

CITY           SKY/WX    TMP DP  RH WIND       PRES   REMARKS
GRAND FORKS    CLOUDY    26  19  74 N29G37    29.71R WCI  10
GRND FRKS AFB  CLOUDY    25  16  68 N25G44    29.72R WCI   9
DEVILS LAKE    FLURRIES  23  17  78 NW33G43   29.78R WCI   5
$$

NDZ022-023-025-028>030-036>039-047>053-071900-
SOUTHEAST NORTH DAKOTA

CITY           SKY/WX    TMP DP  RH WIND       PRES   REMARKS
FARGO          LGT SNOW  33  29  85 N22       29.68R FOG
6HR MIN TEMP:  33; 6HR MAX TEMP:  37; 6HR PCP:  0.01;

JAMESTOWN      LGT SNOW  29  24  82 NW33G44   29.77R WCI  13
$$




USA.gov is the U.S. government's official web portal to all federal, state and local government web resources and services.